Location: Aultman
(40.9284°N, 81.4173°W)
Time: 09:13:49
(UTC+00:00)

Cosmos 1892 Rocket - Pass Details

Date: 24 January 2021
Orbit: 607 x 632 km, 82.5° (Epoch: 02 March)

Event Time Altitude Azimuth Distance (km) Brightness Sun altitude
Rises 22:52:07 0° 184° (S) 2,857 7.4 -4.1°
Reaches altitude 10° 22:54:20 10° 184° (S) 1,955 6.5 -4.5°
Maximum altitude 22:58:39 84° 98° (E) 617 3.5 -5.2°
Drops below altitude 10° 23:03:00 10° 9° (N) 1,965 5.9 -6.0°
Sets 23:05:14 0° 9° (N) 2,874 6.7 -6.4°
